Weather History for KOZW - February, 2013

Change the Weather History Date:

Thursday, February 28, 2013

  Actual Average Record
Temperature  
Mean Temperature 32 °F -  
Max Temperature 34 °F 36 °F 57 °F (1998)
Min Temperature 29 °F 21 °F -10 °F (2014)
Degree Days  
Heating Degree Days 34    
Moisture  
Dew Point 29 °F    
Average Humidity 86    
Maximum Humidity 95    
Minimum Humidity 75    
Precipitation  
Precipitation 0.00 in - - ()
Sea Level Pressure  
Sea Level Pressure 29.73 in    
Wind  
Wind Speed 7 mph (North)    
Max Wind Speed 14 mph    
Max Gust Speed 21 mph    
Visibility 6 miles    
Events Rain , Snow    
Averages and records for this station are not official NWS values.
T = Trace of Precipitation, MM = Missing Value Source: NWS Daily Summary

Daily Weather History Graph

Daily Weather History Graph

Search for Another Location

Airport or City:

Trip Planner

Search our weather history database for the weather conditions in past years. The results will help you decide how hot, cold, wet, or windy it might be!

Date:

Astronomy

Feb. 28, 2013 Rise Set
Actual Time 7:12 AM EST 6:24 PM EST
Civil Twilight 6:44 AM EST 6:53 PM EST
Nautical Twilight 6:11 AM EST 7:25 PM EST
Astronomical Twilight 5:39 AM EST 7:58 PM EST
Moon 9:56 PM EST (2/28) 8:16 AM EST (2/28)
Length of Visible Light 12h 08m
Length of Day
11h 11m
Waning Gibbous, 91% of the Moon is Illuminated
Feb 28
Waning Gibbous
Mar 4
Last Quarter
Mar 11
New
Mar 19
First Quarter
Mar 27
Full

Hourly Weather History & Observations

Time (EST) Temp. Windchill Dew Point Humidity Pressure Visibility Wind Dir Wind Speed Gust Speed Precip Events Conditions
12:15 AM 34.0 °F 31.0 °F 32.2 °F 93% 29.53 in 0.8 mi WNW 3.5 mph - N/A   Overcast
12:54 AM 33.8 °F 28.6 °F 32.0 °F 93% 29.53 in 2.0 mi NNW 5.8 mph - N/A Snow Light Snow
1:15 AM 33.6 °F 28.4 °F 32.0 °F 94% 29.53 in 1.8 mi NNW 5.8 mph - N/A   Overcast
1:34 AM 33.8 °F 27.0 °F 32.0 °F 93% 29.54 in 1.5 mi NNW 8.1 mph - N/A   Overcast
1:55 AM 33.1 °F 27.7 °F 31.6 °F 94% 29.54 in 2.5 mi North 5.8 mph - N/A   Overcast
2:14 AM 33.1 °F - 31.8 °F 95% 29.54 in 7.0 mi Calm Calm - N/A   Overcast
2:34 AM 33.1 °F 27.7 °F 31.8 °F 95% 29.54 in 7.0 mi North 5.8 mph - N/A   Overcast
2:54 AM 33.3 °F 25.1 °F 31.8 °F 94% 29.54 in 7.0 mi NNW 10.4 mph - N/A   Overcast
3:14 AM 33.3 °F 27.9 °F 31.8 °F 94% 29.55 in 7.0 mi NNW 5.8 mph - N/A   Overcast
3:35 AM 33.3 °F 27.1 °F 31.8 °F 94% 29.55 in 4.0 mi NNW 6.9 mph - N/A   Overcast
3:54 AM 33.4 °F 27.3 °F 32.0 °F 94% 29.55 in 4.0 mi NNW 6.9 mph - N/A   Overcast
4:14 AM 33.4 °F 25.9 °F 32.0 °F 94% 29.55 in 1.8 mi NNW 9.2 mph - N/A Snow Light Snow
4:35 AM 33.8 °F 27.0 °F 32.0 °F 93% 29.56 in 2.5 mi NNW 8.1 mph - N/A Snow Light Snow
4:54 AM 33.6 °F 26.8 °F 31.8 °F 93% 29.56 in 3.0 mi NNW 8.1 mph 16.1 mph N/A Snow Light Snow
5:15 AM 33.6 °F 26.2 °F 31.8 °F 93% 29.57 in 2.5 mi NNW 9.2 mph - N/A Snow Light Snow
5:34 AM 33.4 °F 25.4 °F 31.8 °F 94% 29.58 in 2.0 mi NNW 10.4 mph 17.3 mph N/A Snow Light Snow
5:54 AM 33.3 °F 24.6 °F 31.5 °F 93% 29.59 in 3.0 mi NNW 11.5 mph - N/A Snow Light Snow
6:15 AM 33.1 °F 24.9 °F 31.1 °F 92% 29.59 in 2.0 mi NNW 10.4 mph - N/A Snow Light Snow
6:34 AM 33.1 °F 24.9 °F 31.1 °F 92% 29.60 in 4.0 mi NNW 10.4 mph 16.1 mph N/A Snow Light Snow
6:54 AM 33.3 °F 25.7 °F 31.1 °F 92% 29.61 in 3.0 mi NNW 9.2 mph - N/A Snow Light Snow
7:15 AM 33.1 °F 24.9 °F 31.1 °F 92% 29.62 in 3.0 mi NNW 10.4 mph - N/A Snow Light Snow
7:34 AM 33.3 °F 25.1 °F 31.1 °F 92% 29.62 in 3.0 mi NNW 10.4 mph 17.3 mph N/A   Overcast
7:54 AM 33.3 °F 25.7 °F 31.1 °F 92% 29.63 in 1.5 mi NNW 9.2 mph - N/A Snow Light Snow
8:14 AM 33.3 °F 25.1 °F 31.3 °F 92% 29.64 in 1.8 mi NNW 10.4 mph 17.3 mph N/A Snow Light Snow
8:34 AM 33.3 °F 25.7 °F 31.3 °F 92% 29.65 in 2.5 mi NNW 9.2 mph 17.3 mph N/A   Overcast
8:55 AM 33.6 °F 26.2 °F 31.5 °F 92% 29.65 in 7.0 mi North 9.2 mph - N/A   Overcast
9:14 AM 33.8 °F 25.8 °F 31.5 °F 91% 29.66 in 2.5 mi North 10.4 mph 17.3 mph N/A   Overcast
9:34 AM 33.8 °F 27.7 °F 31.6 °F 92% 29.67 in 5.0 mi North 6.9 mph - N/A   Overcast
9:55 AM 34.0 °F 26.0 °F 31.6 °F 91% 29.68 in 1.2 mi North 10.4 mph 16.1 mph N/A Snow Light Snow
10:14 AM 33.8 °F 25.8 °F 31.6 °F 92% 29.68 in 1.2 mi North 10.4 mph 17.3 mph N/A Snow Light Snow
10:34 AM 34.0 °F 26.0 °F 31.8 °F 92% 29.69 in 1.8 mi North 10.4 mph - N/A Snow Light Snow
10:55 AM 33.8 °F 27.0 °F 31.8 °F 92% 29.70 in 1.5 mi North 8.1 mph - N/A Snow Light Snow
11:14 AM 34.0 °F 27.2 °F 31.6 °F 91% 29.71 in 7.0 mi North 8.1 mph 18.4 mph N/A   Overcast
11:34 AM 34.5 °F 25.3 °F 31.5 °F 89% 29.72 in 4.0 mi North 13.8 mph 17.3 mph N/A   Overcast
11:55 AM 33.8 °F 27.7 °F 31.1 °F 90% 29.73 in 0.8 mi North 6.9 mph - N/A Snow Light Snow
12:14 PM 34.2 °F 27.5 °F 31.1 °F 89% 29.73 in 7.0 mi North 8.1 mph - N/A Rain Light Rain
12:35 PM 34.3 °F 25.0 °F 29.7 °F 83% 29.74 in 10.0 mi North 13.8 mph 19.6 mph N/A   Overcast
12:54 PM 34.9 °F 28.3 °F 28.9 °F 79% 29.74 in 10.0 mi North 8.1 mph 17.3 mph N/A   Overcast
1:14 PM 33.6 °F 26.8 °F 29.1 °F 84% 29.75 in 1.5 mi North 8.1 mph 17.3 mph N/A Snow Light Snow
1:35 PM 34.3 °F 26.5 °F 29.1 °F 81% 29.75 in 10.0 mi North 10.4 mph 16.1 mph N/A   Overcast
1:54 PM 33.8 °F 26.4 °F 28.9 °F 82% 29.76 in 2.5 mi North 9.2 mph 18.4 mph N/A Snow Light Snow
2:15 PM 33.8 °F 25.3 °F 27.7 °F 78% 29.76 in 10.0 mi North 11.5 mph 20.7 mph N/A   Overcast
2:34 PM 34.0 °F 26.0 °F 27.3 °F 77% 29.77 in 10.0 mi North 10.4 mph 19.6 mph N/A   Overcast
2:54 PM 33.8 °F 25.3 °F 27.1 °F 77% 29.78 in 10.0 mi North 11.5 mph 18.4 mph N/A   Overcast
3:14 PM 33.4 °F 27.3 °F 26.8 °F 77% 29.78 in 10.0 mi North 6.9 mph - N/A   Overcast
3:34 PM 33.4 °F 27.3 °F 26.2 °F 75% 29.80 in 10.0 mi North 6.9 mph 19.6 mph N/A   Overcast
3:55 PM 33.6 °F 26.2 °F 26.4 °F 75% 29.80 in 10.0 mi North 9.2 mph - N/A   Overcast
4:14 PM 33.4 °F 26.6 °F 26.2 °F 75% 29.81 in 10.0 mi North 8.1 mph - N/A   Overcast
4:34 PM 32.9 °F 26.7 °F 26.2 °F 76% 29.81 in 10.0 mi North 6.9 mph - N/A   Overcast
4:54 PM 32.7 °F 25.7 °F 26.6 °F 78% 29.82 in 10.0 mi North 8.1 mph - N/A   Overcast
5:14 PM 32.4 °F 24.6 °F 26.6 °F 79% 29.83 in 7.0 mi North 9.2 mph - N/A   Overcast
5:35 PM 32.0 °F 27.5 °F 27.5 °F 83% 29.84 in 10.0 mi NNE 4.6 mph - N/A   Overcast
5:54 PM 32.0 °F 27.5 °F 27.5 °F 83% 29.85 in 10.0 mi North 4.6 mph - N/A   Overcast
6:14 PM 32.0 °F 25.6 °F 27.3 °F 83% 29.86 in 10.0 mi North 6.9 mph - N/A   Overcast
6:35 PM 32.0 °F 27.5 °F 27.0 °F 82% 29.87 in 10.0 mi NNW 4.6 mph - N/A   Overcast
6:54 PM 32.0 °F 26.4 °F 26.8 °F 81% 29.88 in 10.0 mi North 5.8 mph - N/A   Overcast
7:14 PM 32.0 °F 27.5 °F 26.6 °F 80% 29.88 in 10.0 mi NNE 4.6 mph - N/A   Overcast
7:35 PM 32.0 °F 26.4 °F 26.2 °F 79% 29.89 in 10.0 mi North 5.8 mph - N/A   Overcast
7:54 PM 31.8 °F 26.2 °F 26.2 °F 80% 29.90 in 10.0 mi North 5.8 mph - N/A   Overcast
8:14 PM 31.6 °F 27.0 °F 26.2 °F 80% 29.91 in 10.0 mi North 4.6 mph - N/A   Overcast
8:35 PM 31.5 °F 24.2 °F 26.2 °F 81% 29.91 in 10.0 mi North 8.1 mph - N/A   Overcast
8:54 PM 31.1 °F 24.5 °F 25.7 °F 80% 29.92 in 10.0 mi North 6.9 mph - N/A   Overcast
9:14 PM 31.1 °F 23.1 °F 25.2 °F 79% 29.93 in 10.0 mi North 9.2 mph - N/A   Overcast
9:35 PM 30.9 °F 26.2 °F 24.8 °F 78% 29.93 in 10.0 mi North 4.6 mph - N/A   Overcast
9:54 PM 30.6 °F 24.7 °F 23.9 °F 76% 29.94 in 10.0 mi North 5.8 mph - N/A   Overcast
10:15 PM 30.2 °F 22.6 °F 23.5 °F 76% 29.94 in 10.0 mi North 8.1 mph - N/A   Overcast
10:34 PM 30.2 °F 22.6 °F 23.7 °F 77% 29.95 in 10.0 mi North 8.1 mph - N/A   Overcast
10:54 PM 30.2 °F 23.4 °F 23.5 °F 76% 29.95 in 10.0 mi North 6.9 mph - N/A   Overcast
11:15 PM 29.8 °F 22.2 °F 23.0 °F 76% 29.95 in 10.0 mi North 8.1 mph - N/A   Overcast
11:54 PM 29.7 °F 24.7 °F 23.0 °F 76% 29.95 in 10.0 mi North 4.6 mph - N/A   Overcast